WS6A-13 Weather Reports


time (UTC)temp
C
wind
direction
speed
KPH
gust
KPH
rain 1hr
cm
rain 24hr
cm
rain mn
cm
humidity
%
barometer
mb
20260831224504 30 78 0.0 0.0 0.00 0.00 0.00 72 1014.0
20260831221504 30 231 0.0 0.0 0.00 0.00 0.00 68 1013.9
20260831220004 31 159 0.0 0.0 0.00 0.00 0.00 66 1013.9
20260831214504 31 159 0.0 1.6 0.00 0.00 0.00 67 1014.5
20260831213004 31 252 0.0 4.8 0.00 0.00 0.00 64 1014.6
20260831211504 31 252 0.0 1.6 0.00 0.00 0.00 67 1014.8
20260831210013 31 236 0.0 9.7 0.00 0.00 0.00 64 1014.9
20260831204503 32 100 0.0 3.2 0.00 0.00 0.00 64 1015.2
20260831203004 32 74 1.6 8.0 0.00 0.00 0.00 62 1015.4
20260831201504 32 60 0.0 4.8 0.00 0.00 0.00 62 1015.5
20260831200010 32 74 0.0 3.2 0.00 0.00 0.00 62 1015.8
20260831194504 32 107 0.0 8.0 0.00 0.00 0.00 68 1016.0
20260831193004 32 107 0.0 4.8 0.00 0.00 0.00 67 1016.1
20260831191503 31 46 1.6 4.8 0.00 0.00 0.00 71 1016.3
20260831190004 30 138 0.0 1.6 0.00 0.00 0.00 70 1016.4
20260831183004 31 267 0.0 4.8 0.00 0.00 0.00 71 1016.6
20260831180004 31 79 0.0 9.7 0.00 0.00 0.00 71 1016.9
20260831173004 31 121 0.0 9.7 0.00 0.00 0.00 73 1017.1
20260831171504 30 61 0.0 0.0 0.00 0.00 0.00 76 1017.0
20260831170004 30 60 0.0 9.7 0.00 0.00 0.00 73 1017.2
20260831164504 30 74 0.0 8.0 0.00 0.00 0.00 73 1017.4
20260831161504 29 295 0.0 3.2 0.00 0.00 0.00 75 1017.5
20260831160004 28 132 0.0 1.6 0.00 0.00 0.00 79 1017.5
20260831154504 28 157 0.0 0.0 0.00 0.00 0.00 78 1017.4
20260831153004 28 138 0.0 0.0 0.00 0.00 0.00 80 1017.4
20260831151505 27 138 0.0 0.0 0.00 0.00 0.00 81 1017.4
20260831150004 27 138 0.0 0.0 0.00 0.00 0.00 79 1017.2
20260831144504 27 138 0.0 0.0 0.00 0.00 0.00 80 1017.1
20260831143004 26 136 0.0 0.0 0.00 0.00 0.00 80 1017.1
20260831133004 24 136 0.0 0.0 0.00 0.00 0.00 87 1017.1
20260831131504 23 136 0.0 0.0 0.00 0.00 0.00 88 1017.1
20260831130004 23 136 0.0 0.0 0.00 0.00 0.00 92 1017.0
20260831124504 22 136 0.0 0.0 0.00 0.00 0.00 92 1016.9
20260831120004 21 136 0.0 0.0 0.00 0.00 0.00 92 1016.7
20260831114504 21 136 0.0 0.0 0.00 0.00 0.00 92 1016.7
20260831113004 21 136 0.0 0.0 0.00 0.00 0.00 92 1016.5
20260831111504 21 136 0.0 0.0 0.00 0.00 0.00 92 1016.5
20260831110004 21 136 0.0 0.0 0.00 0.00 0.00 91 1016.3
20260831104504 21 136 0.0 0.0 0.00 0.00 0.00 91 1016.2
20260831103004 21 136 0.0 0.0 0.00 0.00 0.00 91 1016.0
20260831101504 21 136 0.0 0.0 0.00 0.00 0.00 91 1016.0
20260831100004 21 136 0.0 0.0 0.00 0.00 0.00 91 1016.0
20260831094504 21 136 0.0 0.0 0.00 0.00 0.00 91 1016.0
20260831093004 21 136 0.0 0.0 0.00 0.00 0.00 91 1016.0
20260831091504 21 136 0.0 0.0 0.00 0.00 0.00 91 1016.0
20260831090004 21 136 0.0 0.0 0.00 0.00 0.00 91 1016.0
20260831084504 21 136 0.0 0.0 0.00 0.00 0.00 91 1015.8
20260831083004 21 136 0.0 0.0 0.00 0.00 0.00 91 1015.8
20260831081504 21 136 0.0 0.0 0.00 0.00 0.00 91 1015.7
20260831080004 21 136 0.0 0.0 0.00 0.00 0.00 91 1015.4
20260831074504 21 136 0.0 0.0 0.00 0.00 0.00 91 1015.6
20260831073004 21 136 0.0 0.0 0.00 0.00 0.00 91 1015.7
20260831070004 22 136 0.0 0.0 0.00 0.00 0.00 92 1015.8
20260831064504 22 136 0.0 0.0 0.00 0.00 0.00 92 1015.9
20260831063004 22 136 0.0 0.0 0.00 0.00 0.00 92 1016.1
20260831061504 21 136 0.0 0.0 0.00 0.00 0.00 92 1016.3
20260831054504 21 136 0.0 0.0 0.00 0.00 0.00 91 1016.5
20260831053004 21 136 0.0 0.0 0.00 0.00 0.00 91 1016.5
20260831050004 22 136 0.0 0.0 0.00 0.00 0.00 91 1016.5
20260831044504 22 136 0.0 0.0 0.00 0.00 0.00 91 1016.4
20260831041504 22 136 0.0 0.0 0.00 0.00 0.00 91 1016.5
20260831040005 22 136 0.0 0.0 0.00 0.00 0.00 90 1016.5
20260831034504 22 136 0.0 0.0 0.00 0.00 0.00 90 1016.6
20260831033004 22 136 0.0 0.0 0.00 0.00 0.00 90 1016.6
20260831030004 22 136 0.0 0.0 0.00 0.00 0.00 91 1016.6
20260831024505 23 136 0.0 0.0 0.00 0.00 0.00 90 1016.7
20260831023004 23 136 0.0 0.0 0.00 0.00 0.00 90 1016.6
20260831020004 23 136 0.0 0.0 0.00 0.00 0.00 89 1016.6
20260831014520 23 136 0.0 0.0 0.00 0.00 0.00 89 1016.6
20260831013004 23 136 0.0 0.0 0.00 0.00 0.00 88 1016.6
20260831011504 23 136 0.0 0.0 0.00 0.00 0.00 88 1016.5
20260831010004 23 136 0.0 0.0 0.00 0.00 0.00 86 1016.3
20260831004503 23 136 0.0 0.0 0.00 0.00 0.00 85 1016.1
20260831003004 24 136 0.0 0.0 0.00 0.00 0.00 85 1016.0
20260831001504 25 136 0.0 0.0 0.00 0.00 0.00 84 1015.9
20260831000004 25 136 0.0 0.0 0.00 0.00 0.00 83 1015.9
20260830233004 26 136 0.0 0.0 0.00 0.00 0.00 81 1015.6
20260830231504 26 136 0.0 0.0 0.00 0.00 0.00 80 1015.5
20260830230004 26 136 0.0 0.0 0.00 0.00 0.00 81 1015.4